Wind_Speed
17 16 16 15 15 15 14 14 14 13 13 12 12 12 11 12 11 11 11 11 11 11 11 11 11 11 11 10 10 9 9 9 9 9 9 9 10 9 9 9 9 9 9
19 18 18 17 17 16 16 16 15 15 15 14 14 14 13 13 13 13 13 13 13 13 13 13 13 13 12 12 12 12 11 11 11 11 11 11 11 11 11 11 10 11 11
21 21 20 19 18 18 18 17 17 17 16 16 16 16 16 15 15 15 15 14 14 14 14 14 14 14 14 13 14 13 13 13 13 12 12 12 12 13 13 12 12 12 12
24 23 22 21 20 20 19 19 19 18 18 17 17 18 18 17 17 17 17 16 16 16 16 16 16 15 15 15 15 15 15 15 15 14 14 13 13 14 14 14 13 13 13
25 25 24 23 22 22 22 21 21 20 20 20 19 19 19 19 19 19 19 18 18 17 17 17 17 17 17 17 16 16 16 16 17 16 15 15 15 14 15 15 15 15 14
27 26 25 25 24 24 23 23 22 22 22 22 22 21 21 21 21 21 21 20 20 20 19 19 19 18 18 18 18 18 17 18 18 18 17 16 16 16 16 16 16 16 16
27 27 27 26 26 26 26 25 24 24 24 24 24 24 23 23 23 23 23 22 22 22 21 21 21 21 20 20 20 20 19 19 19 19 19 18 18 18 18 18 18 18 18
28 28 29 28 27 27 27 27 27 27 26 26 26 26 26 25 25 25 24 24 24 24 24 24 24 23 22 23 22 22 21 21 21 20 21 21 20 20 20 20 20 20 20
30 30 30 29 29 29 29 29 29 29 29 29 29 29 28 28 27 27 26 26 26 26 26 26 26 25 25 25 25 25 25 24 24 23 23 23 23 23 23 23 22 22 22
32 32 32 31 31 31 31 31 31 31 31 31 31 31 31 31 30 30 29 28 28 28 28 28 28 28 27 27 27 28 28 27 26 26 25 25 25 25 25 25 25 25 25
33 33 33 33 33 34 34 33 33 32 33 33 33 33 33 33 33 32 32 31 31 31 31 31 30 30 30 30 29 30 30 29 28 28 28 28 28 28 28 28 27 27 27
34 34 35 35 35 35 35 34 34 34 34 34 34 35 35 35 35 34 34 34 33 33 33 33 33 32 32 32 32 32 32 32 32 31 30 30 30 30 30 30 30 30 29
35 35 36 36 36 36 36 35 35 35 35 35 35 35 36 36 37 36 36 36 36 36 36 36 35 35 35 34 34 34 34 35 34 34 33 32 32 32 32 33 32 32 32
36 37 37 37 37 37 37 36 36 36 36 36 36 36 37 38 38 38 38 38 38 38 38 38 38 37 37 37 37 37 37 37 37 37 36 35 35 35 35 35 35 35 35
38 38 38 38 38 38 38 38 38 38 38 37 37 37 38 38 39 40 40 40 40 40 40 40 40 40 40 40 40 40 39 39 39 39 38 37 37 37 37 37 37 37 37
39 39 40 39 39 40 40 40 39 39 39 39 38 38 38 39 40 41 42 42 41 41 41 42 42 42 42 42 42 41 41 42 41 41 42 41 40 40 40 40 40 40 40
41 41 41 41 41 41 42 41 41 41 40 40 40 40 40 40 40 41 41 42 42 42 43 43 43 43 43 43 43 43 44 44 44 44 45 44 43 43 42 42 42 42 42
41 41 42 42 42 42 43 43 42 42 41 42 41 42 42 42 42 42 42 43 44 44 44 45 45 45 45 45 45 45 46 47 47 47 47 47 47 46 45 45 45 44 44
40 41 42 43 43 42 43 44 44 44 43 43 43 43 44 44 44 44 44 44 44 44 45 46 46 46 46 46 47 48 48 48 49 49 50 50 49 49 48 47 47 47 46
41 42 42 43 44 43 43 44 44 45 45 44 44 44 45 45 45 45 45 45 45 45 46 47 47 48 48 48 49 49 49 49 50 50 51 51 51 50 49 48 49 49 48
42 42 42 43 43 44 45 44 45 45 46 46 45 45 46 46 46 46 46 46 47 47 48 48 49 49 49 50 50 49 50 49 49 50 50 51 51 51 50 49 50 50 50
41 42 42 43 43 43 45 45 45 46 47 47 47 47 47 47 47 47 46 47 47 48 48 48 49 49 50 49 50 50 50 50 50 49 48 49 49 50 50 50 50 50 50
41 42 43 43 43 43 44 45 46 46 47 48 48 48 48 48 48 47 45 46 46 46 47 47 48 48 48 49 50 50 51 51 50 48 47 48 49 49 49 49 50 50 50
40 42 43 43 43 43 44 44 45 46 46 47 48 48 47 48 49 47 46 46 45 45 45 45 47 48 48 50 51 51 51 50 50 49 48 49 49 49 50 50 50 50 50
39 40 42 42 42 43 44 44 44 45 46 46 46 46 46 46 48 47 46 45 45 46 45 44 46 48 49 50 51 50 50 49 50 50 49 49 49 49 50 50 50 51 51
37 38 39 41 41 42 43 43 43 43 43 44 45 46 47 47 46 46 45 45 44 45 47 46 47 47 48 49 49 48 49 49 49 49 48 49 49 50 50 51 52 51 51
Wind_Direction
243 244 244 244 245 244 244 245 247 249 250 249 247 245 244 245 247 251 251 252 252 254 256 258 260 258 257 256 255 256 258 258 254 253 255 252 252 253 257 260 261 263 265
245 246 246 245 246 247 245 245 246 246 248 249 249 248 249 250 252 254 255 255 255 256 258 260 261 261 261 258 256 257 258 257 256 255 257 257 255 256 257 260 263 265 266
247 247 247 246 247 247 246 246 247 245 246 248 250 250 251 252 254 256 258 259 258 259 260 262 263 262 263 263 260 259 259 258 257 259 259 260 259 258 259 261 263 264 264
247 247 247 247 247 248 247 247 248 248 248 249 250 251 252 254 255 256 258 260 261 262 262 262 263 262 263 262 261 259 260 259 259 260 261 261 262 261 260 261 262 262 263
246 248 247 246 247 249 248 248 249 250 250 251 252 252 253 255 257 257 258 260 261 262 263 263 263 262 261 261 261 261 260 260 260 260 260 261 262 263 262 261 262 262 262
246 246 246 247 247 248 248 248 249 250 251 253 254 254 254 256 258 259 259 260 261 262 262 264 264 262 261 260 261 262 261 260 259 259 260 260 261 262 263 262 262 263 263
246 246 245 247 248 248 249 249 250 251 252 253 255 255 256 257 258 259 260 260 261 261 262 263 262 261 261 262 262 262 262 260 260 259 260 260 260 261 263 263 262 262 263
247 246 246 247 249 250 250 250 251 253 254 255 255 256 257 258 259 260 260 261 261 261 261 262 261 261 261 260 261 261 261 260 262 261 260 260 261 262 263 264 264 263 264
246 247 247 248 250 251 252 252 253 254 255 256 256 257 258 258 259 260 260 261 261 262 262 262 261 260 260 259 260 260 260 261 262 262 261 260 261 262 262 263 265 265 265
247 247 248 249 251 253 254 253 254 255 255 256 257 258 259 258 259 260 261 261 262 262 263 263 261 260 260 260 260 260 261 261 262 263 263 262 262 262 263 263 263 265 266
248 248 249 250 251 253 254 254 254 254 255 256 257 258 259 259 259 259 261 261 262 263 264 263 262 262 261 261 261 260 261 261 261 263 264 264 264 264 264 263 263 264 266
249 249 250 251 252 253 254 255 255 255 256 257 257 258 258 259 260 260 261 262 262 263 264 264 263 262 262 261 261 261 261 261 262 262 263 264 264 264 264 264 264 264 266
248 249 249 250 252 253 254 255 256 257 257 258 258 259 258 259 260 260 261 262 262 263 264 263 263 262 262 262 261 262 262 261 262 262 263 264 264 264 265 265 265 265 266
249 249 250 249 251 252 254 255 256 257 258 259 260 260 260 260 261 262 262 262 263 263 264 263 262 262 262 262 262 263 263 263 263 263 264 264 264 265 265 265 266 266 267
250 250 250 251 252 253 254 254 256 258 259 260 261 261 261 261 262 263 264 263 263 263 263 263 262 262 262 262 263 263 263 263 263 264 264 264 264 265 265 266 266 266 267
251 251 251 252 253 253 254 255 256 258 260 261 262 261 262 262 262 264 265 265 264 263 264 264 263 262 262 262 262 262 263 263 263 264 264 264 264 265 265 266 266 266 267
251 252 252 253 254 254 255 255 256 257 259 261 261 261 262 263 264 264 265 266 264 263 264 264 263 263 263 262 262 262 262 263 263 263 265 264 264 265 265 266 267 267 267
252 252 253 254 254 255 255 255 256 257 258 260 261 262 262 263 265 266 267 268 267 265 264 264 264 264 263 263 264 263 263 263 263 263 264 264 265 265 265 266 267 267 267
254 254 254 255 255 256 257 256 256 257 258 260 261 262 263 264 266 266 268 269 267 266 265 265 265 265 264 265 265 265 264 264 263 263 263 264 264 265 265 266 266 266 266
255 255 255 256 256 257 257 257 256 257 258 261 262 262 263 264 265 266 268 269 268 266 266 264 265 265 265 265 266 266 266 265 265 264 264 264 264 265 264 265 267 267 266
255 256 256 257 257 257 258 258 257 258 259 261 262 263 264 264 265 267 269 268 267 266 265 265 265 265 266 266 265 266 266 265 265 265 265 264 264 264 264 265 266 267 267
256 256 257 257 258 258 259 259 258 259 259 261 262 264 264 265 265 266 268 268 267 266 265 266 265 265 265 265 265 265 265 264 265 265 265 264 264 264 265 266 266 267 267
256 256 257 257 258 259 259 260 260 260 261 261 262 264 265 265 265 266 268 268 267 267 266 266 265 264 265 266 266 266 266 264 264 263 264 265 265 265 265 266 267 268 268
256 256 256 257 258 259 260 260 261 261 262 263 263 264 265 265 265 265 266 267 267 268 268 268 266 266 266 265 265 266 266 265 264 263 264 265 265 265 264 265 266 268 270
259 258 257 258 258 260 261 261 261 262 262 263 263 263 265 265 266 265 265 266 266 267 269 271 269 268 266 266 266 265 265 264 264 264 264 264 265 265 265 265 266 267 270
262 261 261 260 260 261 261 261 262 262 264 265 265 264 264 265 265 265 265 265 267 268 269 270 270 269 267 266 265 265 265 264 264 264 264 264 265 266 266 266 266 267 269
Height
5845 5845 5846 5847 5847 5848 5848 5849 5849 5850 5850 5851 5851 5852 5852 5852 5852 5853 5853 5852 5852 5852 5852 5852 5852 5852 5852 5852 5852 5852 5852 5852 5852 5852 5852 5852 5852 5852 5852 5852 5852 5852 5852
5841 5842 5843 5843 5844 5845 5845 5846 5847 5847 5848 5848 5849 5849 5849 5850 5850 5850 5850 5850 5850 5850 5850 5850 5850 5850 5850 5850 5850 5850 5850 5850 5850 5850 5850 5850 5850 5850 5850 5850 5850 5850 5850
5838 5838 5839 5840 5841 5842 5842 5843 5844 5844 5845 5845 5846 5846 5847 5847 5847 5847 5847 5847 5847 5847 5847 5847 5847 5847 5847 5847 5847 5847 5848 5848 5848 5848 5848 5848 5848 5848 5848 5848 5848 5848 5847
5833 5834 5835 5836 5837 5838 5838 5839 5840 5841 5841 5842 5842 5843 5843 5844 5844 5844 5844 5844 5844 5844 5844 5844 5844 5844 5844 5844 5844 5844 5844 5844 5845 5845 5845 5845 5845 5845 5845 5845 5845 5845 5845
5828 5829 5831 5832 5833 5834 5834 5835 5836 5837 5837 5838 5838 5839 5839 5840 5840 5841 5841 5841 5841 5841 5841 5841 5841 5841 5841 5841 5841 5841 5841 5841 5841 5841 5842 5842 5842 5842 5842 5842 5842 5842 5842
5822 5824 5825 5827 5828 5829 5830 5831 5832 5833 5833 5834 5834 5835 5835 5836 5836 5836 5837 5837 5837 5837 5837 5837 5837 5837 5837 5837 5837 5837 5837 5837 5837 5838 5838 5838 5838 5839 5838 5838 5838 5838 5838
5817 5818 5820 5821 5823 5824 5825 5826 5827 5828 5828 5829 5829 5830 5830 5831 5831 5832 5832 5832 5832 5832 5832 5833 5833 5832 5833 5833 5833 5833 5833 5833 5833 5833 5834 5834 5835 5835 5835 5835 5834 5834 5835
5810 5812 5814 5815 5817 5818 5819 5820 5821 5822 5823 5823 5824 5824 5825 5826 5826 5826 5826 5827 5827 5827 5827 5828 5828 5828 5828 5828 5828 5828 5829 5829 5829 5829 5829 5830 5830 5830 5830 5830 5830 5830 5830
5804 5806 5807 5809 5810 5811 5812 5814 5815 5816 5817 5817 5818 5818 5819 5819 5820 5820 5821 5821 5821 5822 5822 5822 5823 5823 5823 5823 5823 5823 5823 5824 5824 5824 5824 5825 5825 5825 5825 5825 5825 5825 5825
5797 5799 5801 5802 5803 5804 5805 5807 5808 5809 5810 5811 5811 5812 5812 5813 5813 5814 5814 5815 5815 5816 5816 5816 5817 5817 5817 5817 5817 5818 5818 5818 5818 5818 5819 5819 5819 5819 5820 5820 5820 5820 5820
5790 5792 5793 5795 5796 5797 5798 5799 5800 5801 5802 5803 5803 5804 5805 5806 5806 5807 5808 5808 5809 5809 5809 5809 5810 5810 5810 5811 5811 5811 5811 5811 5812 5812 5812 5813 5813 5813 5813 5813 5814 5814 5814
5782 5784 5785 5787 5788 5789 5790 5791 5792 5793 5794 5795 5795 5796 5797 5798 5798 5799 5800 5801 5801 5801 5802 5802 5802 5802 5803 5803 5804 5804 5804 5805 5805 5806 5806 5806 5806 5806 5806 5806 5807 5807 5807
5774 5776 5777 5778 5779 5780 5782 5783 5784 5785 5786 5787 5787 5788 5789 5790 5790 5791 5792 5792 5793 5793 5794 5794 5794 5795 5795 5796 5796 5796 5797 5797 5797 5798 5798 5799 5799 5799 5799 5799 5799 5799 5800
5766 5767 5768 5770 5771 5772 5773 5775 5776 5777 5778 5779 5779 5779 5780 5781 5781 5782 5782 5783 5784 5784 5785 5785 5786 5786 5787 5787 5788 5788 5788 5789 5789 5790 5790 5790 5790 5790 5790 5791 5791 5791 5792
5757 5759 5760 5761 5762 5764 5765 5766 5767 5768 5769 5770 5770 5771 5771 5772 5772 5773 5773 5774 5774 5775 5775 5776 5776 5777 5777 5778 5778 5779 5779 5780 5780 5781 5781 5781 5781 5782 5782 5782 5782 5782 5783
5748 5749 5750 5752 5753 5754 5756 5757 5758 5759 5760 5761 5761 5762 5762 5762 5763 5763 5763 5763 5764 5765 5765 5766 5766 5767 5767 5768 5768 5769 5769 5770 5771 5771 5771 5772 5772 5772 5772 5772 5772 5773 5773
5738 5740 5741 5742 5743 5745 5746 5747 5748 5749 5750 5751 5752 5752 5753 5753 5753 5753 5753 5753 5753 5754 5754 5755 5755 5756 5756 5757 5758 5758 5759 5759 5760 5760 5761 5761 5762 5762 5762 5762 5762 5762 5763
5729 5730 5731 5732 5733 5735 5736 5737 5738 5739 5740 5741 5742 5743 5743 5743 5743 5743 5743 5743 5743 5743 5743 5743 5744 5744 5745 5746 5746 5747 5747 5748 5748 5748 5749 5749 5750 5751 5751 5751 5751 5752 5752
5719 5720 5721 5722 5723 5724 5725 5727 5728 5729 5730 5731 5732 5732 5733 5733 5733 5733 5732 5732 5731 5731 5732 5732 5732 5733 5733 5733 5734 5734 5735 5735 5735 5736 5736 5737 5738 5738 5739 5739 5739 5739 5740
5709 5710 5711 5711 5712 5713 5715 5716 5717 5719 5720 5720 5721 5721 5722 5722 5722 5722 5721 5721 5720 5720 5720 5720 5720 5721 5721 5721 5721 5722 5722 5722 5722 5722 5723 5723 5724 5725 5725 5726 5726 5727 5727
5698 5699 5700 5701 5702 5703 5704 5705 5707 5708 5709 5709 5710 5710 5711 5711 5711 5711 5710 5710 5709 5709 5709 5709 5708 5709 5708 5708 5708 5709 5709 5709 5709 5709 5709 5710 5711 5712 5712 5713 5713 5714 5714
5688 5689 5690 5691 5691 5692 5693 5694 5696 5697 5697 5698 5698 5699 5699 5699 5699 5699 5699 5698 5698 5697 5697 5696 5696 5696 5696 5695 5695 5695 5697 5698 5697 5697 5697 5697 5698 5699 5699 5700 5699 5700 5701
5677 5678 5679 5680 5681 5681 5682 5683 5684 5685 5686 5686 5687 5687 5687 5687 5687 5687 5686 5686 5686 5685 5684 5684 5683 5683 5684 5683 5682 5682 5682 5683 5685 5686 5686 5686 5685 5686 5686 5686 5687 5687 5687
5667 5667 5668 5669 5670 5671 5671 5672 5672 5673 5674 5675 5675 5675 5674 5675 5675 5674 5674 5674 5673 5673 5672 5672 5671 5671 5670 5671 5670 5669 5669 5669 5670 5673 5675 5674 5673 5673 5673 5674 5674 5674 5674
5656 5657 5657 5658 5659 5660 5660 5661 5661 5662 5662 5662 5662 5663 5663 5662 5662 5662 5662 5662 5662 5661 5661 5660 5659 5658 5657 5657 5657 5657 5657 5657 5657 5658 5661 5661 5661 5660 5660 5660 5661 5661 5661
5647 5647 5647 5647 5648 5648 5649 5649 5650 5651 5651 5651 5651 5651 5651 5651 5651 5651 5650 5650 5650 5650 5649 5648 5647 5645 5644 5644 5644 5645 5645 5645 5645 5645 5646 5648 5648 5648 5647 5647 5647 5647 5647